Location: Bergnershof
(48.9468°N, 10.9431°E)
Time: 02:51:14
(UTC+00:00)

USA 234 - Pass Details

Date: 03 March 2021
Orbit: 1102 x 1105 km, 123.0° (Epoch: 16 April)

Event Time Altitude Azimuth Distance (km) Brightness Sun altitude
Exits shadow 17:52:36 - 66° (ENE) 3,184 5.1 -8.9°
Reaches altitude 10° 17:53:17 10° 69° (ENE) 2,965 4.9 -9.1°
Maximum altitude 17:58:54 30° 128° (SE) 1,872 4.1 -10.0°
Drops below altitude 10° 18:04:28 10° 188° (S) 2,953 5.6 -10.9°
Sets 18:07:18 0° 198° (SSW) 3,908 6.4 -11.4°
